{"data":{"norad_id":68404,"epoch":"2026-05-25T03:05:53.725056Z","epoch_age_seconds":73935,"freshness":"FRESH","line1":"1 68404U 26063AA  26145.12909404  .00026183  00000+0  80942-3 0  9991","line2":"2 68404  97.2850 287.7524 0000572 257.8605 102.2574 15.33488979  9611","mean_motion":15.33488979,"eccentricity":5.72e-5,"inclination_deg":97.285,"raan_deg":287.7524,"arg_perigee_deg":257.8605,"mean_anomaly_deg":102.2574,"bstar":0.00080942,"rev_number":961,"period_min":93.903511516531,"perigee_km":465.02087602172,"apogee_km":465.80377806473,"semimajor_km":6843.5493270432,"source":"CELESTRAK","updated_at":"2026-05-25T13:38:21.951854Z"}}